| time (UTC) | temp C | wind direction | speed KPH | gust KPH | rain 1hr cm | rain 24hr cm | rain mn cm | humidity % | barometer mb |
| 20260510153505 | 12 | 21 | 12.9 | 27.4 | 0.00 | 0.00 | 0.00 | 68 | 1013.2 |
| 20260510150506 | 12 | 42 | 11.3 | 32.2 | 0.00 | 0.00 | 0.00 | 70 | 1013.7 |
| 20260510143505 | 12 | 39 | 1.6 | 20.9 | 0.00 | 0.00 | 0.00 | 71 | 1014.2 |
| 20260510133505 | 12 | 50 | 9.7 | 22.5 | 0.00 | 0.00 | 0.00 | 70 | 1014.3 |
| 20260510130505 | 12 | 45 | 8.0 | 20.9 | 0.00 | 0.00 | 0.00 | 71 | 1014.4 |
| 20260510120506 | 13 | 47 | 8.0 | 29.0 | 0.00 | 0.00 | 0.00 | 67 | 1014.7 |
| 20260510120006 | 13 | 58 | 9.7 | 29.0 | 0.00 | 0.00 | 0.00 | 66 | 1014.7 |
| 20260510113505 | 14 | 69 | 6.4 | 29.0 | 0.00 | 0.00 | 0.00 | 65 | 1014.8 |
| 20260510113005 | 14 | 65 | 11.3 | 29.0 | 0.00 | 0.00 | 0.00 | 64 | 1015.0 |
| 20260510110006 | 15 | 39 | 9.7 | 32.2 | 0.00 | 0.00 | 0.00 | 63 | 1015.1 |
| 20260510103505 | 14 | 79 | 9.7 | 20.9 | 0.00 | 0.00 | 0.00 | 66 | 1015.3 |
| 20260510103005 | 13 | 71 | 9.7 | 25.7 | 0.00 | 0.00 | 0.00 | 68 | 1015.3 |
| 20260510100505 | 13 | 68 | 4.8 | 22.5 | 0.00 | 0.00 | 0.00 | 70 | 1015.4 |
| 20260510093505 | 12 | 64 | 9.7 | 29.0 | 0.00 | 0.00 | 0.00 | 71 | 1015.8 |
| 20260510093005 | 12 | 30 | 9.7 | 27.4 | 0.00 | 0.00 | 0.00 | 71 | 1015.7 |
| 20260510090005 | 11 | 32 | 8.0 | 20.9 | 0.00 | 0.00 | 0.00 | 74 | 1015.8 |
| 20260510073506 | 10 | 57 | 8.0 | 22.5 | 0.00 | 0.00 | 0.00 | 79 | 1016.2 |
| 20260510073005 | 10 | 24 | 11.3 | 22.5 | 0.00 | 0.00 | 0.00 | 79 | 1016.1 |
| 20260510063005 | 9 | 40 | 6.4 | 16.1 | 0.00 | 0.00 | 0.00 | 83 | 1016.0 |
| 20260510060505 | 9 | 29 | 9.7 | 24.1 | 0.00 | 0.00 | 0.00 | 83 | 1015.9 |
| 20260510050005 | 8 | 35 | 4.8 | 16.1 | 0.00 | 0.00 | 0.00 | 84 | 1015.9 |
| 20260510040505 | 8 | 25 | 8.0 | 16.1 | 0.00 | 0.00 | 0.00 | 84 | 1015.9 |
| 20260510033505 | 9 | 22 | 6.4 | 19.3 | 0.00 | 0.00 | 0.00 | 83 | 1016.1 |
| 20260510030505 | 9 | 32 | 4.8 | 14.5 | 0.00 | 0.00 | 0.00 | 83 | 1016.3 |
| 20260510030005 | 9 | 33 | 4.8 | 14.5 | 0.00 | 0.00 | 0.00 | 83 | 1016.3 |
| 20260510020505 | 10 | 31 | 3.2 | 14.5 | 0.00 | 0.00 | 0.00 | 79 | 1016.3 |
| 20260510020005 | 10 | 31 | 4.8 | 14.5 | 0.00 | 0.00 | 0.00 | 79 | 1016.2 |
| 20260510013505 | 10 | 21 | 8.0 | 19.3 | 0.00 | 0.00 | 0.00 | 73 | 1016.1 |
| 20260510013005 | 10 | 33 | 4.8 | 19.3 | 0.00 | 0.00 | 0.00 | 73 | 1016.1 |
| 20260510000505 | 11 | 49 | 1.6 | 19.3 | 0.00 | 0.00 | 0.00 | 68 | 1015.9 |
| 20260509233005 | 11 | 73 | 0.0 | 3.2 | 0.00 | 0.00 | 0.00 | 63 | 1015.8 |
| 20260509230505 | 12 | 73 | 3.2 | 11.3 | 0.00 | 0.00 | 0.00 | 61 | 1015.8 |
| 20260509230005 | 12 | 76 | 1.6 | 9.7 | 0.00 | 0.00 | 0.00 | 60 | 1015.8 |
| 20260509223505 | 12 | 78 | 1.6 | 11.3 | 0.00 | 0.00 | 0.00 | 58 | 1015.8 |
| 20260509223005 | 12 | 77 | 3.2 | 11.3 | 0.00 | 0.00 | 0.00 | 58 | 1015.8 |
| 20260509220504 | 12 | 84 | 0.0 | 11.3 | 0.00 | 0.00 | 0.00 | 57 | 1015.8 |
| 20260509220005 | 12 | 84 | 3.2 | 11.3 | 0.00 | 0.00 | 0.00 | 56 | 1015.8 |
| 20260509203505 | 14 | 75 | 0.0 | 16.1 | 0.00 | 0.00 | 0.00 | 52 | 1015.3 |
| 20260509200005 | 15 | 118 | 1.6 | 19.3 | 0.00 | 0.00 | 0.00 | 52 | 1015.2 |
| 20260509190006 | 16 | 116 | 0.0 | 19.3 | 0.00 | 0.00 | 0.00 | 51 | 1014.7 |
| 20260509183005 | 17 | 119 | 8.0 | 24.1 | 0.00 | 0.00 | 0.00 | 49 | 1014.5 |
| 20260509180504 | 17 | 120 | 3.2 | 14.5 | 0.00 | 0.00 | 0.00 | 48 | 1014.3 |
| 20260509180005 | 18 | 120 | 6.4 | 19.3 | 0.00 | 0.00 | 0.00 | 48 | 1014.3 |
| 20260509173005 | 18 | 104 | 8.0 | 11.3 | 0.00 | 0.00 | 0.00 | 46 | 1014.1 |
| 20260509170005 | 19 | 136 | 8.0 | 19.3 | 0.00 | 0.00 | 0.00 | 48 | 1014.2 |
| 20260509163504 | 20 | 77 | 3.2 | 16.1 | 0.00 | 0.00 | 0.00 | 44 | 1014.1 |
| 20260509163005 | 20 | 45 | 4.8 | 16.1 | 0.00 | 0.00 | 0.00 | 45 | 1014.2 |